Weather History for Sparta, TN

Change the Weather History Date:

Monday, April 15, 2013

  Actual Average (KCSV) Record (KCSV)
Temperature  
Mean Temperature 66 °F 56 °F  
Max Temperature 77 °F 67 °F 81 °F (1977)
Min Temperature 55 °F 45 °F 23 °F (1957)
Degree Days  
Heating Degree Days 0    
Month to date heating degree days  
Since 1 July heating degree days  
Cooling Degree Days 1    
Month to date cooling degree days  
Year to date cooling degree days  
Growing Degree Days 16 (Base 50)    
Moisture  
Dew Point 55 °F    
Average Humidity 73    
Maximum Humidity 94    
Minimum Humidity 50    
Precipitation  
Precipitation 0.00 in 0.15 in 2.67 in (1956)
Month to date precipitation 2.41  
Year to date precipitation 16.61  
Sea Level Pressure  
Sea Level Pressure 29.99 in    
Wind  
Wind Speed 5 mph (South)    
Max Wind Speed 10 mph    
Max Gust Speed -    
Visibility 10 miles    
Events      
T = Trace of Precipitation, MM = Missing Value Source: NWS Daily Summary

Daily Weather History Graph

Daily Weather History Graph

Search for Another Location

Airport:

Trip Planner

Search our weather history database for the weather conditions in past years. The results will help you decide how hot, cold, wet, or windy it might be!

Date:

Astronomy

Apr. 15, 2013 Rise Set
Actual Time 6:08 AM CDT 7:16 PM CDT
Civil Twilight 5:42 AM CDT 7:42 PM CDT
Nautical Twilight 5:10 AM CDT 8:14 PM CDT
Astronomical Twilight 4:38 AM CDT 8:46 PM CDT
Moon 9:39 AM CDT (4/15) No Moon Set
Length of Visible Light 14h 00m
Length of Day
13h 07m
Waxing Crescent, 25% of the Moon is Illuminated
Apr 15
Waxing Crescent
Apr 18
First Quarter
Apr 25
Full
May 2
Last Quarter
May 9
New

Hourly Weather History & Observations

Time (CDT) Temp. Dew Point Humidity Pressure Visibility Wind Dir Wind Speed Gust Speed Precip Events Conditions
12:15 AM 55.4 °F 50.0 °F 82% 29.93 in 10.0 mi South 5.8 mph - N/A   Overcast
12:35 AM 55.4 °F 50.0 °F 82% 29.93 in 10.0 mi South 6.9 mph - N/A   Overcast
12:55 AM 55.4 °F 50.0 °F 82% 29.91 in 10.0 mi SSE 5.8 mph - N/A   Overcast
1:15 AM 55.4 °F 50.0 °F 82% 29.92 in 10.0 mi South 4.6 mph - N/A   Overcast
1:35 AM 55.4 °F 50.0 °F 82% 29.92 in 10.0 mi South 4.6 mph - N/A   Overcast
1:55 AM 55.4 °F 50.0 °F 82% 29.92 in 10.0 mi South 4.6 mph - N/A   Overcast
2:15 AM 55.4 °F 50.0 °F 82% 29.92 in 10.0 mi South 4.6 mph - N/A   Overcast
2:35 AM 55.4 °F 50.0 °F 82% 29.92 in 10.0 mi South 5.8 mph - N/A   Overcast
2:55 AM 55.4 °F 51.8 °F 88% 29.92 in 10.0 mi South 5.8 mph - N/A   Overcast
3:15 AM 55.4 °F 51.8 °F 88% 29.93 in 10.0 mi SSW 4.6 mph - N/A   Overcast
3:35 AM 55.4 °F 51.8 °F 88% 29.93 in 10.0 mi Calm Calm - N/A   Overcast
3:55 AM 55.4 °F 51.8 °F 88% 29.93 in 10.0 mi Calm Calm - N/A   Overcast
4:15 AM 55.4 °F 51.8 °F 88% 29.94 in 10.0 mi SSE 3.5 mph - N/A   Overcast
4:35 AM 55.4 °F 51.8 °F 88% 29.95 in 10.0 mi South 3.5 mph - N/A   Overcast
4:55 AM 55.4 °F 51.8 °F 88% 29.95 in 10.0 mi Calm Calm - N/A   Overcast
5:15 AM 55.4 °F 51.8 °F 88% 29.95 in 10.0 mi Calm Calm - N/A   Overcast
5:35 AM 55.4 °F 51.8 °F 88% 29.96 in 10.0 mi Calm Calm - N/A   Overcast
5:55 AM 55.4 °F 51.8 °F 88% 29.98 in 10.0 mi Calm Calm - N/A   Overcast
6:15 AM 55.4 °F 51.8 °F 88% 29.99 in 10.0 mi South 4.6 mph - N/A   Overcast
6:35 AM 55.4 °F 51.8 °F 88% 29.99 in 10.0 mi SSE 4.6 mph - N/A   Overcast
6:55 AM 55.4 °F 51.8 °F 88% 29.99 in 10.0 mi South 4.6 mph - N/A   Overcast
7:15 AM 55.4 °F 53.6 °F 94% 30.00 in 10.0 mi South 5.8 mph - N/A   Overcast
7:35 AM 55.4 °F 53.6 °F 94% 30.00 in 10.0 mi South 4.6 mph - N/A   Overcast
7:55 AM 57.2 °F 53.6 °F 88% 30.01 in 10.0 mi South 4.6 mph - N/A   Overcast
8:15 AM 57.2 °F 53.6 °F 88% 30.01 in 10.0 mi South 4.6 mph - N/A   Overcast
8:35 AM 57.2 °F 53.6 °F 88% 30.02 in 10.0 mi South 4.6 mph - N/A   Overcast
8:55 AM 57.2 °F 53.6 °F 88% 30.02 in 10.0 mi SSE 5.8 mph - N/A   Overcast
9:15 AM 59.0 °F 55.4 °F 88% 30.02 in 10.0 mi SSE 6.9 mph - N/A   Overcast
9:35 AM 59.0 °F 53.6 °F 82% 30.02 in 10.0 mi South 8.1 mph - N/A   Overcast
9:55 AM 60.8 °F 53.6 °F 77% 30.02 in 10.0 mi South 9.2 mph - N/A   Overcast
10:15 AM 62.6 °F 53.6 °F 72% 30.03 in 10.0 mi South 8.1 mph - N/A   Overcast
10:35 AM 62.6 °F 53.6 °F 72% 30.03 in 10.0 mi South 5.8 mph - N/A   Overcast
10:55 AM 62.6 °F 55.4 °F 77% 30.03 in 10.0 mi SSE 6.9 mph - N/A   Overcast
11:15 AM 64.4 °F 55.4 °F 73% 30.03 in 10.0 mi SSE 5.8 mph - N/A   Overcast
11:35 AM 64.4 °F 55.4 °F 73% 30.03 in 10.0 mi SSE 4.6 mph - N/A   Overcast
11:55 AM 66.2 °F 55.4 °F 68% 30.02 in 10.0 mi Variable 4.6 mph - N/A   Overcast
12:15 PM 66.2 °F 55.4 °F 68% 30.02 in 10.0 mi SSW 5.8 mph - N/A   Mostly Cloudy
12:35 PM 69.8 °F 55.4 °F 60% 30.02 in 10.0 mi Variable 3.5 mph - N/A   Mostly Cloudy
12:55 PM 69.8 °F 57.2 °F 64% 30.01 in 10.0 mi Calm Calm - N/A   Scattered Clouds
1:15 PM 69.8 °F 57.2 °F 64% 30.01 in 10.0 mi SSE 6.9 mph - N/A   Partly Cloudy
1:35 PM 69.8 °F 55.4 °F 60% 30.01 in 10.0 mi Variable 5.8 mph - N/A   Partly Cloudy
1:55 PM 71.6 °F 57.2 °F 60% 30.00 in 10.0 mi Calm Calm - N/A   Clear
2:15 PM 73.4 °F 55.4 °F 53% 30.00 in 10.0 mi ENE 4.6 mph - N/A   Clear
2:35 PM 73.4 °F 57.2 °F 57% 29.99 in 10.0 mi WSW 3.5 mph - N/A   Clear
2:55 PM 75.2 °F 57.2 °F 53% 29.98 in 10.0 mi Variable 3.5 mph - N/A   Clear
3:15 PM 75.2 °F 57.2 °F 53% 29.97 in 10.0 mi South 4.6 mph - N/A   Clear
3:35 PM 75.2 °F 57.2 °F 53% 29.96 in 10.0 mi Calm Calm - N/A   Clear
3:55 PM 75.2 °F 57.2 °F 53% 29.96 in 10.0 mi Calm Calm - N/A   Clear
4:15 PM 77.0 °F 57.2 °F 50% 29.96 in 10.0 mi Calm Calm - N/A   Clear
4:35 PM 77.0 °F 57.2 °F 50% 29.96 in 10.0 mi SSW 3.5 mph - N/A   Clear
5:15 PM 77.0 °F 57.2 °F 50% 29.97 in 10.0 mi South 3.5 mph - N/A   Clear
5:35 PM 77.0 °F 57.2 °F 50% 29.97 in 10.0 mi SW 4.6 mph - N/A   Clear
5:55 PM 77.0 °F 57.2 °F 50% 29.97 in 10.0 mi SW 8.1 mph - N/A   Clear
6:15 PM 75.2 °F 57.2 °F 53% 29.97 in 10.0 mi SW 5.8 mph - N/A   Clear
6:35 PM 73.4 °F 59.0 °F 61% 29.97 in 10.0 mi SSW 4.6 mph - N/A   Clear
6:55 PM 71.6 °F 60.8 °F 69% 29.98 in 10.0 mi South 3.5 mph - N/A   Clear
7:15 PM 71.6 °F 57.2 °F 60% 29.98 in 10.0 mi SSE 3.5 mph - N/A   Clear
7:35 PM 66.2 °F 55.4 °F 68% 29.98 in 10.0 mi SSE 4.6 mph - N/A   Clear
7:55 PM 69.8 °F 57.2 °F 64% 29.99 in 10.0 mi SE 5.8 mph - N/A   Clear
8:15 PM 69.8 °F 57.2 °F 64% 30.00 in 10.0 mi SSE 4.6 mph - N/A   Clear
8:35 PM 69.8 °F 57.2 °F 64% 30.01 in 10.0 mi South 8.1 mph - N/A   Clear
8:55 PM 69.8 °F 57.2 °F 64% 30.02 in 10.0 mi South 9.2 mph - N/A   Clear
9:15 PM 69.8 °F 57.2 °F 64% 30.02 in 10.0 mi South 10.4 mph - N/A   Clear
9:35 PM 68.0 °F 57.2 °F 68% 30.03 in 10.0 mi South 10.4 mph - N/A   Clear
9:55 PM 68.0 °F 57.2 °F 68% 30.04 in 10.0 mi South 9.2 mph - N/A   Clear
10:15 PM 68.0 °F 57.2 °F 68% 30.04 in 10.0 mi South 8.1 mph - N/A   Clear
10:35 PM 66.2 °F 57.2 °F 73% 30.05 in 10.0 mi South 8.1 mph - N/A   Clear
10:55 PM 66.2 °F 57.2 °F 73% 30.05 in 10.0 mi South 6.9 mph - N/A   Clear
11:15 PM 66.2 °F 57.2 °F 73% 30.05 in 10.0 mi South 9.2 mph - N/A   Clear
11:35 PM 66.2 °F 57.2 °F 73% 30.06 in 10.0 mi South 10.4 mph - N/A   Clear
11:55 PM 66.2 °F 57.2 °F 73% 30.06 in 10.0 mi South 9.2 mph - N/A   Clear